Radiation Dose at Monitoring Post of Fukushima Daini Nuclear Power Station
Date,Time,MP-1(microSv/h),MP-2(microSv/h),MP-3(microSv/h),MP-4(microSv/h),MP-5(microSv/h),MP-6(microSv/h),MP-7(microSv/h),Wind Direction,Wind Velocity(m/s),Rain
2017/12/30,00:00,0.341,0.206,0.346,0.323,0.305,0.170,0.101,west,10.3,No
2017/12/30,00:10,0.342,0.207,0.346,0.325,0.307,0.171,0.102,west-northwest,12.0,No
2017/12/30,00:20,0.341,0.206,0.347,0.324,0.308,0.170,0.101,west-northwest,13.3,No
2017/12/30,00:30,0.341,0.206,0.345,0.324,0.306,0.171,0.102,west-northwest,12.3,No
2017/12/30,00:40,0.341,0.206,0.345,0.323,0.305,0.170,0.102,west-northwest,14.7,No
2017/12/30,00:50,0.341,0.204,0.345,0.324,0.306,0.171,0.101,west,16.8,No
2017/12/30,01:00,0.341,0.204,0.345,0.322,0.309,0.170,0.102,west-northwest,12.8,No
2017/12/30,01:10,0.342,0.205,0.346,0.323,0.309,0.170,0.102,west-northwest,9.8,No
2017/12/30,01:20,0.342,0.206,0.348,0.324,0.309,0.170,0.102,west-northwest,9.3,No
2017/12/30,01:30,0.340,0.207,0.347,0.326,0.310,0.171,0.102,west-northwest,6.4,No
2017/12/30,01:40,0.343,0.207,0.345,0.324,0.309,0.170,0.102,west,7.5,No
2017/12/30,01:50,0.343,0.207,0.346,0.324,0.309,0.172,0.102,west-northwest,8.5,No
2017/12/30,02:00,0.342,0.207,0.347,0.323,0.308,0.170,0.102,west,7.8,No
2017/12/30,02:10,0.342,0.207,0.345,0.324,0.307,0.171,0.101,west-northwest,5.0,No
2017/12/30,02:20,0.342,0.207,0.347,0.324,0.309,0.171,0.101,west-northwest,4.8,No
2017/12/30,02:30,0.342,0.207,0.346,0.324,0.306,0.172,0.102,west-northwest,2.6,No
2017/12/30,02:40,0.343,0.206,0.347,0.324,0.307,0.171,0.102,northwest,4.2,No
2017/12/30,02:50,0.342,0.207,0.346,0.324,0.305,0.170,0.101,west-northwest,6.0,No
2017/12/30,03:00,0.341,0.206,0.347,0.324,0.306,0.170,0.101,north-northwest,5.9,No
2017/12/30,03:10,0.341,0.207,0.346,0.324,0.306,0.172,0.102,northwest,5.1,No
2017/12/30,03:20,0.341,0.207,0.346,0.324,0.305,0.172,0.102,northwest,2.8,No
2017/12/30,03:30,0.341,0.208,0.345,0.325,0.307,0.170,0.102,north-northwest,4.0,No
2017/12/30,03:40,0.340,0.206,0.345,0.323,0.306,0.171,0.102,north,3.4,No
2017/12/30,03:50,0.342,0.207,0.345,0.323,0.304,0.170,0.102,north-northeast,1.1,No
2017/12/30,04:00,0.341,0.206,0.345,0.323,0.306,0.171,0.102,north,1.6,No
2017/12/30,04:10,0.341,0.206,0.345,0.325,0.305,0.171,0.102,north-northeast,2.2,No
2017/12/30,04:20,0.341,0.206,0.346,0.324,0.307,0.170,0.101,north-northeast,1.4,No
2017/12/30,04:30,0.341,0.208,0.345,0.323,0.306,0.170,0.101,north,2.3,No
2017/12/30,04:40,0.342,0.207,0.346,0.323,0.306,0.171,0.102,north,1.1,No
2017/12/30,04:50,0.341,0.207,0.346,0.323,0.305,0.171,0.102,north,2.0,No
2017/12/30,05:00,0.342,0.206,0.344,0.324,0.306,0.172,0.101,northwest,1.2,No
2017/12/30,05:10,0.342,0.207,0.346,0.323,0.307,0.170,0.102,west-northwest,0.6,No
2017/12/30,05:20,0.340,0.207,0.347,0.323,0.304,0.171,0.101,west,0.6,No
2017/12/30,05:30,0.341,0.206,0.346,0.323,0.306,0.170,0.102,northwest,1.0,No
2017/12/30,05:40,0.342,0.207,0.345,0.323,0.305,0.170,0.101,-,CALM,No
2017/12/30,05:50,0.341,0.206,0.346,0.325,0.306,0.170,0.101,-,CALM,No
2017/12/30,06:00,0.342,0.206,0.344,0.323,0.305,0.171,0.101,-,CALM,No
2017/12/30,06:10,0.340,0.206,0.345,0.324,0.305,0.170,0.102,northeast,0.8,No
2017/12/30,06:20,0.341,0.206,0.344,0.323,0.305,0.171,0.102,south-southwest,0.6,No
2017/12/30,06:30,0.341,0.206,0.344,0.324,0.305,0.170,0.102,-,CALM,No
2017/12/30,06:40,0.341,0.206,0.346,0.324,0.305,0.170,0.102,west-southwest,0.9,No
2017/12/30,06:50,0.342,0.206,0.343,0.324,0.305,0.170,0.102,west,0.8,No
2017/12/30,07:00,0.341,0.206,0.345,0.324,0.304,0.170,0.101,west-northwest,1.0,No
2017/12/30,07:10,0.341,0.207,0.346,0.323,0.305,0.170,0.101,west-southwest,0.7,No
2017/12/30,07:20,0.341,0.206,0.346,0.325,0.304,0.170,0.102,west-southwest,1.1,No
2017/12/30,07:30,0.343,0.207,0.346,0.323,0.306,0.171,0.102,west-southwest,1.6,No
2017/12/30,07:40,0.342,0.207,0.346,0.323,0.305,0.170,0.101,west,3.4,No
2017/12/30,07:50,0.342,0.207,0.345,0.324,0.304,0.171,0.101,west-northwest,1.3,No
2017/12/30,08:00,0.342,0.207,0.345,0.323,0.305,0.171,0.102,west-northwest,1.3,No
2017/12/30,08:10,0.343,0.207,0.346,0.323,0.304,0.170,0.102,north-northeast,3.3,No
2017/12/30,08:20,0.340,0.207,0.345,0.323,0.305,0.171,0.101,west-northwest,2.6,No
2017/12/30,08:30,0.342,0.207,0.347,0.322,0.305,0.170,0.102,-,CALM,No
2017/12/30,08:40,0.342,0.206,0.346,0.324,0.303,0.171,0.102,-,CALM,No
2017/12/30,08:50,0.342,0.206,0.344,0.323,0.305,0.170,0.102,-,CALM,No
2017/12/30,09:00,0.340,0.207,0.345,0.323,0.304,0.170,0.102,-,CALM,No
2017/12/30,09:10,0.340,0.207,0.345,0.323,0.305,0.169,0.102,-,CALM,No
2017/12/30,09:20,0.342,0.207,0.346,0.325,0.305,0.170,0.101,west-southwest,0.8,No
2017/12/30,09:30,0.341,0.207,0.346,0.325,0.306,0.171,0.102,-,CALM,No
2017/12/30,09:40,0.340,0.208,0.346,0.326,0.307,0.171,0.101,south,0.6,No
2017/12/30,09:50,0.341,0.206,0.347,0.324,0.305,0.170,0.101,east-northeast,0.7,No
2017/12/30,10:00,0.341,0.206,0.347,0.324,0.306,0.171,0.102,-,CALM,No
2017/12/30,10:10,0.340,0.207,0.345,0.322,0.305,0.171,0.102,northwest,1.7,No
2017/12/30,10:20,0.340,0.206,0.346,0.323,0.304,0.172,0.102,northwest,2.0,No
2017/12/30,10:30,0.342,0.205,0.345,0.325,0.307,0.171,0.101,northwest,6.8,No
2017/12/30,10:40,0.341,0.206,0.345,0.322,0.303,0.171,0.102,north-northwest,7.5,No
2017/12/30,10:50,0.340,0.206,0.346,0.323,0.306,0.170,0.101,northwest,7.0,No
2017/12/30,11:00,0.341,0.206,0.345,0.323,0.306,0.171,0.102,northwest,7.3,No
2017/12/30,11:10,0.340,0.206,0.347,0.323,0.304,0.171,0.101,west-northwest,7.0,No
2017/12/30,11:20,0.341,0.206,0.346,0.324,0.305,0.171,0.102,northwest,8.7,No
2017/12/30,11:30,0.341,0.207,0.344,0.324,0.305,0.170,0.102,west-northwest,7.3,No
2017/12/30,11:40,0.342,0.206,0.347,0.324,0.306,0.171,0.102,northwest,7.7,No
2017/12/30,11:50,0.341,0.207,0.347,0.324,0.308,0.171,0.102,west-northwest,6.5,No
2017/12/30,12:00,0.341,0.207,0.346,0.326,0.306,0.172,0.102,west-northwest,5.5,No
2017/12/30,12:10,0.338,0.207,0.345,0.322,0.307,0.172,0.102,north,6.6,No
2017/12/30,12:20,0.342,0.207,0.346,0.326,0.308,0.170,0.102,north,5.9,No
2017/12/30,12:30,0.340,0.207,0.343,0.322,0.306,0.170,0.102,north-northwest,5.5,No
2017/12/30,12:40,0.341,0.207,0.347,0.322,0.308,0.172,0.102,north-northwest,1.9,No
2017/12/30,12:50,0.342,0.207,0.348,0.326,0.307,0.172,0.102,north-northwest,5.7,No
2017/12/30,13:00,0.344,0.207,0.346,0.325,0.308,0.172,0.102,west-northwest,1.5,No
2017/12/30,13:10,0.344,0.207,0.345,0.325,0.309,0.171,0.102,west,3.1,No
2017/12/30,13:20,0.343,0.207,0.347,0.324,0.308,0.171,0.102,northwest,5.5,No
2017/12/30,13:30,0.344,0.207,0.347,0.326,0.307,0.172,0.101,west-northwest,5.5,No
2017/12/30,13:40,0.343,0.207,0.347,0.324,0.307,0.171,0.102,northwest,4.8,No
2017/12/30,13:50,0.342,0.206,0.345,0.325,0.308,0.172,0.103,north-northwest,4.0,No
2017/12/30,14:00,0.341,0.208,0.348,0.324,0.307,0.171,0.102,north-northwest,3.3,No
2017/12/30,14:10,0.341,0.206,0.347,0.323,0.307,0.171,0.101,north-northwest,3.1,No
2017/12/30,14:20,0.343,0.206,0.344,0.322,0.307,0.171,0.102,northwest,1.3,No
2017/12/30,14:30,0.342,0.207,0.345,0.324,0.307,0.171,0.102,north-northwest,0.9,No
2017/12/30,14:40,0.341,0.208,0.349,0.327,0.307,0.171,0.103,northwest,1.7,No
2017/12/30,14:50,0.343,0.207,0.346,0.325,0.308,0.171,0.102,northwest,1.4,No
2017/12/30,15:00,0.342,0.207,0.345,0.325,0.305,0.171,0.102,west-northwest,3.0,No
2017/12/30,15:10,0.342,0.208,0.347,0.325,0.307,0.171,0.103,west-northwest,3.1,No
2017/12/30,15:20,0.342,0.206,0.345,0.324,0.306,0.169,0.102,west,3.6,No
2017/12/30,15:30,0.341,0.207,0.346,0.325,0.307,0.172,0.102,west-southwest,1.5,No
2017/12/30,15:40,0.341,0.206,0.346,0.326,0.307,0.171,0.102,-,CALM,No
2017/12/30,15:50,0.342,0.207,0.346,0.324,0.307,0.172,0.102,west-southwest,0.9,No
2017/12/30,16:00,0.343,0.206,0.345,0.324,0.306,0.172,0.102,west,1.6,No
2017/12/30,16:10,0.343,0.207,0.345,0.325,0.306,0.171,0.102,west,0.6,No
2017/12/30,16:20,0.341,0.207,0.346,0.324,0.307,0.171,0.102,northwest,1.1,No
2017/12/30,16:30,0.341,0.207,0.348,0.326,0.306,0.171,0.101,west-northwest,0.7,No
2017/12/30,16:40,0.343,0.206,0.345,0.324,0.305,0.171,0.101,northwest,1.7,No
2017/12/30,16:50,0.340,0.206,0.345,0.324,0.305,0.171,0.101,northwest,4.1,No
2017/12/30,17:00,0.342,0.208,0.346,0.323,0.307,0.172,0.102,northwest,4.5,No
2017/12/30,17:10,0.342,0.207,0.347,0.324,0.306,0.172,0.102,west-northwest,1.8,No
2017/12/30,17:20,0.343,0.207,0.347,0.325,0.307,0.172,0.102,north-northwest,3.8,No
2017/12/30,17:30,0.343,0.207,0.346,0.326,0.307,0.172,0.102,north-northwest,3.5,No
2017/12/30,17:40,0.342,0.207,0.346,0.325,0.306,0.170,0.102,north-northwest,4.7,No
2017/12/30,17:50,0.342,0.208,0.347,0.325,0.305,0.171,0.102,north,3.9,No
2017/12/30,18:00,0.343,0.207,0.347,0.325,0.306,0.171,0.102,north,5.0,No
2017/12/30,18:10,0.343,0.207,0.347,0.325,0.307,0.171,0.102,north,7.0,No
2017/12/30,18:20,0.341,0.208,0.347,0.325,0.306,0.171,0.101,north,6.2,No
2017/12/30,18:30,0.342,0.208,0.348,0.325,0.304,0.172,0.103,north-northwest,5.1,No
2017/12/30,18:40,0.342,0.207,0.346,0.325,0.307,0.171,0.102,north-northwest,4.5,No
2017/12/30,18:50,0.342,0.208,0.345,0.323,0.307,0.171,0.103,north-northwest,4.6,No
2017/12/30,19:00,0.342,0.206,0.345,0.324,0.306,0.171,0.102,north-northwest,4.5,No
2017/12/30,19:10,0.341,0.207,0.345,0.325,0.307,0.172,0.101,north,3.2,No
2017/12/30,19:20,0.342,0.207,0.346,0.325,0.307,0.171,0.102,north-northwest,3.4,No
2017/12/30,19:30,0.342,0.207,0.347,0.325,0.306,0.171,0.102,north-northwest,4.5,No
2017/12/30,19:40,0.342,0.207,0.345,0.326,0.306,0.171,0.102,north-northwest,4.2,No
2017/12/30,19:50,0.342,0.207,0.346,0.324,0.307,0.171,0.102,north-northwest,4.4,No
2017/12/30,20:00,0.342,0.208,0.345,0.326,0.306,0.172,0.102,northwest,4.8,No
2017/12/30,20:10,0.342,0.207,0.345,0.324,0.307,0.172,0.102,north-northwest,3.9,No
2017/12/30,20:20,0.342,0.207,0.346,0.323,0.305,0.171,0.101,north-northwest,4.4,No
2017/12/30,20:30,0.342,0.207,0.347,0.325,0.307,0.172,0.102,north-northwest,3.1,No
2017/12/30,20:40,0.340,0.206,0.346,0.324,0.306,0.171,0.103,north-northwest,4.4,No
2017/12/30,20:50,0.342,0.206,0.347,0.325,0.306,0.171,0.101,north-northwest,4.0,No
2017/12/30,21:00,0.340,0.207,0.347,0.325,0.308,0.171,0.102,north-northwest,2.8,No
2017/12/30,21:10,0.340,0.206,0.347,0.324,0.306,0.170,0.102,north-northwest,3.0,No
2017/12/30,21:20,0.342,0.206,0.346,0.323,0.305,0.172,0.102,north,3.3,No
2017/12/30,21:30,0.341,0.206,0.346,0.324,0.306,0.171,0.103,north-northwest,3.2,No
2017/12/30,21:40,0.342,0.206,0.346,0.324,0.306,0.171,0.102,north,2.7,No
2017/12/30,21:50,0.341,0.207,0.346,0.325,0.306,0.171,0.102,north-northwest,1.9,No
2017/12/30,22:00,0.340,0.207,0.346,0.323,0.305,0.171,0.102,north-northwest,2.5,No
2017/12/30,22:10,0.341,0.207,0.346,0.325,0.305,0.171,0.102,north-northwest,3.6,No
2017/12/30,22:20,0.342,0.207,0.346,0.323,0.307,0.170,0.103,north-northwest,3.1,No
2017/12/30,22:30,0.341,0.207,0.345,0.324,0.306,0.170,0.102,north-northwest,2.5,No
2017/12/30,22:40,0.342,0.208,0.346,0.325,0.306,0.171,0.102,north-northwest,1.0,No
2017/12/30,22:50,0.342,0.207,0.348,0.324,0.304,0.169,0.102,northwest,2.6,No
2017/12/30,23:00,0.341,0.207,0.346,0.325,0.305,0.171,0.101,west-northwest,1.5,No
2017/12/30,23:10,0.342,0.207,0.345,0.324,0.306,0.171,0.103,west-northwest,1.3,No
2017/12/30,23:20,0.342,0.207,0.346,0.324,0.306,0.170,0.102,west-northwest,0.9,No
2017/12/30,23:30,0.341,0.208,0.346,0.323,0.304,0.171,0.102,-,CALM,No
2017/12/30,23:40,0.341,0.207,0.346,0.324,0.305,0.171,0.103,-,CALM,No
2017/12/30,23:50,0.341,0.206,0.346,0.325,0.304,0.172,0.102,-,CALM,No
